Temp
2 2 2 2 2 2 3 3 4 4 4 5 5 6 6 6 6 7 8 7 7 7 7 7 7 7 7 7 6 6 5 6 6 7 7 7 7 7 7 7 6 6 5 5 5
1 0 0 1 1 1 2 2 2 3 4 4 4 5 5 6 6 6 7 7 7 7 7 7 7 7 7 7 6 6 6 6 7 6 6 7 7 7 7 7 6 6 5 5 5
0 0 0 -1 -0 0 1 1 1 2 3 3 4 4 5 6 6 6 7 7 7 7 6 6 6 6 6 6 6 6 7 6 6 6 6 6 7 7 7 7 6 5 5 5 5
0 0 1 0 0 -0 -0 -0 0 0 1 2 3 4 4 5 5 5 6 7 7 6 6 5 6 6 6 7 6 6 6 6 6 6 6 6 7 7 7 7 6 5 5 5 5
0 0 0 0 -0 -0 -1 -1 -1 -0 -0 1 2 3 3 5 6 4 5 5 6 5 5 5 6 6 6 7 6 5 6 6 6 6 6 7 7 7 7 7 6 6 6 5 5
0 0 0 -0 -1 -1 -1 -2 -2 -2 -1 -0 1 2 3 4 4 4 5 4 4 5 5 5 5 6 6 6 6 6 6 5 6 6 6 6 7 7 8 7 7 6 6 5 5
0 1 0 0 -1 -1 -1 -1 -2 -2 -2 -1 -0 1 1 4 3 3 4 4 4 5 5 4 4 5 6 6 6 6 5 5 6 6 6 6 7 7 7 7 7 6 6 6 6
-0 -0 0 0 -0 -0 -1 -1 -1 -1 -1 -1 -0 0 1 2 3 3 4 4 4 5 5 4 4 4 5 5 5 6 5 5 6 6 6 6 7 7 7 7 6 6 6 6 6
-0 -1 -1 -0 -0 -0 -0 -0 -0 -1 -1 -1 -1 -1 0 2 2 3 4 5 4 4 4 4 4 4 4 5 4 5 5 6 6 6 6 6 7 7 7 7 7 7 6 6 6
-1 -1 -1 -1 -1 -1 -1 -1 -1 -0 -0 -1 -1 -1 -1 1 1 2 3 4 4 4 3 4 4 3 4 4 4 5 5 6 7 7 6 6 7 8 7 7 8 7 7 6 6
-1 -1 -1 -1 -1 -1 -2 -1 -1 -1 -0 0 -0 -1 -1 -1 1 2 2 2 3 4 3 4 3 4 5 5 5 6 6 6 6 6 6 7 7 7 7 8 8 7 7 6 6
-2 -2 -2 -2 -2 -2 -3 -2 -3 -2 1 -0 0 0 -0 -2 0 0 1 2 2 3 3 2 3 5 4 5 4 5 6 5 6 6 6 6 7 7 7 7 8 8 7 7 7
-2 -2 -2 -2 -2 -3 -3 -3 -4 -4 -3 2 2 2 2 -1 1 2 2 2 2 2 3 3 5 4 4 4 4 4 5 6 5 5 6 6 6 7 7 7 7 8 8 7 7
-2 -2 -2 -3 -3 -4 -4 -4 -4 -5 -3 1 0 -0 0 0 1 3 1 1 1 2 2 2 3 4 5 4 4 4 5 5 5 4 5 5 5 5 7 7 7 8 8 7 7
-3 -3 -3 -3 -4 -4 -4 -5 -5 -5 -4 -1 -1 -1 -0 0 1 2 3 2 1 2 2 2 4 3 3 5 4 5 5 5 5 4 4 4 5 6 6 7 7 8 8 8 7
-3 -4 -3 -3 -4 -5 -5 -6 -6 -6 -4 -1 -2 -2 -1 -0 0 1 2 1 1 1 1 2 3 3 3 4 5 3 4 4 4 3 3 4 5 6 7 7 8 8 8 8 8
-5 -4 -4 -4 -4 -6 -6 -7 -6 -6 -2 -2 -1 -1 -0 1 1 0 1 1 0 -0 -0 1 2 2 3 3 3 3 4 4 4 3 5 5 5 6 7 7 7 7 8 8 8
-5 -5 -5 -4 -5 -6 -6 -7 -7 -5 -4 -3 -2 -1 -1 0 0 -0 0 0 -0 1 1 1 2 2 2 3 4 4 3 4 4 4 6 4 4 6 7 7 7 7 7 8 8
-6 -5 -5 -6 -6 -7 -8 -8 -6 -6 -5 -3 -2 -1 -1 -1 0 0 0 -1 0 1 2 1 2 3 3 3 4 3 2 4 4 2 3 4 5 6 7 7 7 7 7 8 8
-6 -6 -6 -7 -7 -9 -8 -8 -8 -6 -5 -3 -4 -3 -2 -1 0 0 -0 -1 0 0 1 2 2 3 3 3 2 3 4 3 3 4 4 3 4 6 7 7 7 7 8 8 8
-8 -8 -7 -8 -8 -9 -9 -8 -8 -7 -6 -4 -4 -4 -3 -2 -2 -1 -1 -1 0 1 1 2 3 2 3 3 3 2 3 4 4 4 4 4 5 7 7 7 7 7 8 8 8
-10 -9 -9 -8 -9 -9 -9 -8 -8 -7 -6 -6 -4 -5 -4 -3 -3 -2 -2 -1 -1 -0 0 1 2 2 3 3 3 3 3 3 3 3 3 4 5 6 7 7 7 7 7 8 8
-11 -10 -10 -9 -10 -9 -9 -8 -8 -7 -7 -7 -7 -6 -6 -5 -4 -3 -2 -1 -1 -1 -1 -0 0 1 1 2 3 2 3 3 3 3 3 3 4 6 6 6 7 7 7 8 8
-11 -11 -10 -10 -9 -9 -9 -9 -8 -7 -7 -7 -7 -7 -6 -6 -5 -4 -3 -2 -2 -1 -2 -1 -1 0 1 0 0 1 2 2 2 2 3 3 4 4 5 6 6 7 7 7 7
-11 -11 -10 -9 -9 -9 -9 -9 -8 -8 -8 -8 -7 -7 -7 -7 -6 -5 -4 -3 -2 -2 -2 -1 -2 -1 -1 -1 -0 0 1 2 2 2 2 3 3 4 4 5 5 6 6 7 7
-12 -11 -11 -10 -9 -8 -9 -8 -8 -8 -8 -8 -8 -7 -8 -7 -6 -6 -5 -5 -4 -4 -2 -2 -2 -1 -1 -0 -0 0 1 1 2 2 2 2 3 3 4 4 5 5 6 6 6
-11 -11 -11 -10 -9 -9 -8 -7 -8 -8 -8 -8 -8 -8 -8 -8 -8 -6 -6 -6 -5 -4 -3 -3 -2 -2 -1 -1 -0 0 1 2 2 2 2 2 2 2 3 4 5 5 5 5 5
Height
3107 3106 3105 3105 3104 3104 3103 3103 3103 3102 3101 3102 3102 3103 3103 3104 3103 3104 3105 3108 3108 3109 3110 3111 3111 3113 3114 3115 3117 3118 3119 3117 3119 3120 3121 3121 3120 3120 3119 3117 3115 3112 3110 3107 3105
3101 3100 3100 3098 3098 3098 3096 3096 3095 3096 3095 3095 3095 3096 3098 3098 3098 3099 3100 3100 3102 3104 3106 3107 3108 3108 3110 3111 3112 3114 3113 3114 3116 3117 3118 3118 3118 3117 3116 3114 3112 3109 3106 3103 3101
3097 3096 3095 3092 3090 3089 3089 3089 3089 3090 3089 3089 3088 3090 3091 3093 3095 3093 3094 3095 3096 3099 3101 3103 3104 3104 3106 3106 3108 3109 3108 3112 3113 3114 3114 3115 3114 3114 3112 3110 3108 3106 3103 3100 3097
3093 3092 3090 3088 3086 3083 3081 3081 3082 3082 3082 3083 3081 3084 3085 3087 3093 3089 3088 3090 3091 3094 3096 3099 3099 3101 3102 3102 3103 3105 3107 3108 3110 3111 3111 3111 3111 3110 3108 3108 3105 3102 3100 3097 3095
3088 3087 3085 3084 3081 3078 3075 3075 3074 3075 3076 3076 3075 3077 3080 3081 3086 3086 3085 3087 3088 3090 3092 3096 3097 3098 3099 3099 3099 3101 3104 3105 3107 3107 3107 3108 3108 3107 3104 3104 3102 3099 3097 3095 3092
3082 3082 3080 3078 3077 3073 3071 3068 3069 3068 3069 3069 3069 3071 3073 3074 3079 3080 3082 3083 3084 3088 3088 3092 3094 3095 3095 3095 3095 3097 3100 3101 3102 3104 3104 3105 3104 3103 3103 3101 3099 3097 3094 3092 3090
3077 3076 3074 3072 3071 3068 3067 3064 3063 3061 3061 3062 3062 3063 3064 3068 3072 3073 3076 3077 3080 3083 3085 3088 3090 3091 3091 3092 3092 3093 3096 3097 3098 3100 3100 3101 3099 3099 3099 3097 3096 3095 3093 3091 3088
3072 3070 3068 3066 3064 3062 3061 3060 3057 3054 3056 3055 3055 3055 3052 3065 3064 3066 3068 3071 3073 3077 3080 3084 3085 3086 3087 3088 3088 3090 3093 3093 3095 3095 3094 3097 3093 3096 3095 3094 3094 3092 3092 3090 3088
3065 3064 3062 3060 3058 3056 3054 3053 3051 3049 3050 3049 3048 3049 3050 3053 3058 3060 3062 3065 3068 3071 3073 3077 3079 3080 3083 3084 3086 3085 3086 3089 3091 3091 3091 3092 3089 3092 3091 3091 3090 3090 3090 3088 3087
3060 3059 3057 3055 3053 3051 3047 3046 3045 3044 3045 3044 3043 3047 3052 3047 3050 3053 3055 3058 3061 3064 3067 3071 3072 3072 3075 3077 3075 3076 3081 3084 3085 3088 3087 3088 3087 3088 3088 3087 3088 3087 3087 3086 3085
3054 3053 3052 3049 3047 3045 3042 3041 3041 3039 3038 3038 3039 3039 3040 3043 3042 3049 3051 3053 3054 3058 3060 3063 3064 3061 3066 3072 3076 3076 3078 3081 3082 3084 3084 3084 3084 3084 3085 3084 3084 3084 3084 3083 3083
3049 3048 3046 3045 3043 3041 3037 3035 3034 3032 3025 3032 3031 3029 3034 3036 3037 3044 3047 3050 3049 3052 3056 3059 3055 3061 3066 3071 3073 3074 3074 3077 3080 3079 3080 3080 3079 3080 3080 3081 3081 3080 3080 3079 3080
3044 3043 3041 3041 3040 3037 3034 3033 3030 3027 3023 3020 3023 3023 3025 3028 3031 3037 3041 3043 3045 3047 3049 3051 3054 3056 3061 3065 3067 3069 3069 3072 3076 3077 3076 3074 3073 3075 3077 3076 3077 3077 3077 3076 3076
3038 3037 3036 3037 3038 3034 3032 3032 3030 3027 3024 3019 3017 3016 3018 3019 3020 3030 3033 3039 3040 3042 3047 3048 3051 3053 3054 3057 3063 3063 3066 3070 3072 3075 3074 3072 3069 3070 3072 3071 3072 3073 3074 3074 3073
3033 3032 3031 3031 3032 3031 3032 3030 3030 3030 3031 3021 3018 3018 3018 3019 3020 3019 3023 3029 3033 3039 3043 3042 3043 3047 3050 3053 3058 3060 3064 3067 3069 3070 3070 3069 3070 3062 3065 3065 3066 3068 3070 3070 3070
3027 3026 3025 3027 3028 3027 3028 3027 3030 3034 3026 3020 3018 3017 3016 3016 3017 3016 3017 3022 3029 3036 3036 3041 3042 3043 3047 3052 3056 3058 3062 3064 3066 3067 3065 3064 3067 3057 3060 3060 3061 3063 3065 3066 3066
3021 3020 3020 3022 3024 3023 3025 3026 3031 3029 3022 3020 3017 3016 3015 3014 3014 3014 3016 3018 3023 3030 3032 3037 3037 3040 3044 3047 3050 3054 3058 3062 3064 3063 3056 3059 3061 3054 3055 3057 3057 3058 3060 3061 3062
3013 3013 3014 3017 3019 3019 3022 3026 3025 3021 3020 3018 3016 3016 3015 3014 3014 3014 3015 3016 3021 3024 3028 3031 3034 3034 3037 3041 3044 3046 3051 3054 3056 3054 3053 3055 3053 3051 3052 3053 3054 3055 3055 3056 3058
3004 3005 3008 3012 3014 3015 3019 3019 3018 3018 3019 3018 3017 3016 3015 3014 3014 3015 3016 3015 3016 3019 3025 3027 3029 3029 3033 3037 3041 3042 3044 3051 3051 3052 3053 3050 3049 3048 3049 3049 3050 3049 3049 3051 3053
2996 2997 3002 3006 3008 3010 3013 3011 3012 3016 3017 3018 3019 3018 3016 3014 3014 3014 3015 3015 3013 3015 3020 3024 3026 3026 3029 3033 3036 3039 3043 3047 3048 3048 3049 3046 3047 3046 3046 3045 3046 3044 3044 3047 3049
2990 2990 2996 3000 3002 3004 3003 3004 3007 3014 3016 3018 3016 3017 3017 3015 3014 3013 3014 3015 3012 3011 3016 3021 3024 3026 3027 3027 3029 3034 3036 3040 3041 3042 3041 3043 3043 3043 3042 3042 3043 3043 3043 3044 3046
2984 2984 2989 2994 2997 2994 2997 2999 3003 3009 3013 3015 3014 3014 3015 3015 3014 3015 3014 3014 3012 3012 3013 3016 3019 3021 3024 3025 3028 3030 3032 3034 3035 3039 3039 3040 3038 3040 3042 3042 3042 3043 3043 3044 3044
2977 2979 2983 2987 2985 2988 2993 2996 2998 3004 3006 3009 3010 3010 3011 3013 3015 3013 3014 3014 3012 3011 3012 3013 3016 3019 3022 3026 3024 3026 3029 3031 3032 3033 3032 3037 3037 3038 3039 3041 3040 3040 3042 3043 3044
2973 2973 2975 2978 2980 2982 2986 2990 2993 2997 3000 3003 3004 3006 3008 3009 3010 3011 3012 3013 3012 3012 3012 3013 3014 3016 3017 3019 3021 3023 3024 3026 3026 3028 3029 3030 3034 3036 3036 3037 3038 3038 3038 3040 3040
2963 2963 2967 2968 2971 2976 2981 2985 2988 2991 2994 2997 2998 3000 3003 3005 3005 3007 3009 3009 3009 3009 3011 3013 3013 3014 3015 3017 3018 3019 3021 3022 3022 3024 3025 3028 3028 3030 3031 3031 3031 3031 3032 3033 3033
2953 2956 2961 2964 2968 2971 2975 2975 2981 2985 2990 2991 2993 2996 2998 2997 3000 3002 3004 3006 3004 3005 3007 3009 3011 3013 3014 3016 3016 3016 3017 3018 3018 3018 3019 3021 3022 3023 3025 3024 3024 3026 3026 3027 3029
2944 2948 2956 2957 2961 2965 2964 2969 2973 2980 2983 2986 2988 2990 2991 2993 2993 2994 2995 2998 3000 3002 3004 3006 3007 3009 3011 3013 3013 3013 3013 3014 3014 3014 3014 3015 3017 3017 3017 3019 3019 3019 3020 3022 3022
Wind_Speed
35 35 34 34 34 33 34 34 34 33 29 30 30 30 29 26 20 19 18 21 19 20 18 17 16 15 15 16 16 15 17 19 15 7 7 9 11 9 13 16 19 20 17 22 16
28 30 33 36 36 35 34 33 32 34 32 29 31 28 30 27 24 19 18 19 19 20 19 18 18 17 18 18 19 18 21 19 16 9 10 10 14 13 15 18 18 18 17 20 16
18 22 25 27 31 37 38 34 32 31 31 31 31 28 27 26 23 22 19 17 18 20 19 20 21 19 20 19 20 20 20 14 14 12 13 11 12 14 16 19 18 18 18 20 16
25 26 26 27 29 33 34 40 37 38 38 35 34 29 26 23 13 11 11 15 19 18 18 20 21 20 21 22 19 21 17 15 15 13 15 15 15 15 21 19 20 16 20 20 18
29 29 29 30 29 28 32 34 32 33 36 38 36 32 27 25 19 14 11 11 15 19 18 18 19 18 20 21 21 23 20 20 18 17 17 19 19 18 18 17 19 18 20 19 17
29 30 30 29 28 26 29 28 28 32 40 38 38 35 30 30 17 16 22 18 16 19 18 17 16 16 19 24 21 21 21 24 22 18 21 20 21 21 14 17 16 17 17 18 17
31 30 30 29 29 27 26 27 25 31 30 41 39 40 39 27 21 16 21 29 26 24 22 19 19 21 23 21 21 21 23 24 24 20 23 23 27 21 16 9 8 13 13 17 16
31 31 31 31 30 30 30 31 32 35 34 28 38 38 46 25 24 25 23 25 26 33 31 27 24 25 23 23 19 20 22 25 21 20 13 15 22 14 11 10 10 10 10 16 14
32 31 30 31 31 31 29 32 35 33 28 33 33 41 32 21 21 25 24 25 25 25 28 30 29 28 26 24 21 21 17 19 16 14 10 9 19 13 16 11 8 10 10 12 12
30 30 30 30 30 30 29 30 30 28 32 33 32 29 31 19 13 16 24 29 26 27 26 27 30 31 32 32 25 22 21 23 20 16 15 12 17 12 13 10 9 9 9 8 11
29 29 29 29 29 29 29 28 28 30 28 30 27 19 21 16 12 16 17 17 23 29 32 32 33 38 37 33 29 20 14 18 18 16 18 16 17 13 9 8 9 9 10 8 11
29 28 28 28 26 27 28 28 28 29 35 23 27 30 27 19 25 16 17 19 19 28 33 32 39 35 29 29 31 27 21 22 20 19 17 16 18 17 13 11 11 12 13 10 12
29 28 29 27 24 24 26 25 25 25 31 32 24 24 24 31 30 28 22 19 23 23 32 41 28 34 31 30 31 30 26 23 20 16 15 18 20 18 18 16 14 11 13 11 10
28 28 30 27 23 21 22 21 20 19 20 15 10 5 8 21 34 28 31 32 27 28 24 33 40 17 20 37 32 32 26 22 20 16 9 11 10 20 24 24 16 13 10 10 10
28 29 29 28 20 19 18 17 13 14 6 11 7 6 7 5 7 12 27 35 36 28 22 23 28 39 20 17 28 33 25 21 19 17 17 15 12 13 10 19 16 14 14 15 12
28 27 28 25 21 18 14 13 9 2 7 2 4 6 12 8 8 9 13 35 35 29 28 22 20 18 33 31 24 20 18 9 10 13 9 14 13 14 11 10 11 10 11 13 12
26 26 27 24 19 17 13 10 5 6 5 4 4 11 13 12 7 13 8 28 21 26 25 22 26 20 16 30 23 18 12 3 5 5 8 10 11 27 24 24 19 13 7 10 10
26 27 26 22 18 17 14 10 10 4 10 15 15 13 6 6 5 8 4 15 30 24 21 22 14 26 23 22 26 32 29 10 7 6 5 7 7 13 8 5 6 14 15 15 14
28 27 24 19 19 19 16 16 9 14 10 9 7 9 5 2 2 5 6 4 23 27 16 22 19 13 28 25 21 16 22 28 7 1 1 4 8 15 21 20 14 15 13 14 15
28 27 24 19 19 19 20 25 16 11 11 17 10 8 8 11 3 7 6 7 6 28 22 12 5 13 13 21 27 24 14 14 15 6 8 3 6 11 14 16 13 10 9 12 15
25 27 22 18 21 24 29 24 25 23 9 10 12 10 6 6 10 7 3 9 4 8 30 18 14 7 7 14 22 23 25 16 12 16 4 4 6 6 5 7 4 5 6 9 14
19 24 18 16 25 29 31 25 31 23 25 20 24 18 14 15 14 8 3 4 10 12 11 26 12 15 14 10 10 16 17 27 14 6 7 10 16 13 10 16 13 9 6 7 7
22 24 18 18 29 31 29 29 26 25 26 26 18 16 9 13 11 6 3 4 7 6 5 7 8 5 6 17 25 17 15 17 20 21 19 10 7 11 8 13 17 12 9 11 8
23 22 24 27 30 24 29 27 26 29 31 25 27 19 19 19 15 10 14 12 8 5 1 2 6 3 5 5 4 5 10 8 8 12 16 21 16 15 20 17 18 19 20 15 14
31 34 29 15 30 34 28 26 29 30 25 20 20 30 27 15 15 17 17 11 13 15 11 1 2 3 2 4 5 6 7 11 13 11 10 11 13 12 16 17 18 21 21 20 23
36 39 36 35 20 27 37 31 32 32 28 25 22 19 16 28 33 23 21 15 11 6 14 12 5 4 2 5 7 10 12 16 15 16 17 14 14 16 18 18 16 15 18 22 24
38 41 34 36 39 32 29 31 33 30 26 25 24 19 15 14 19 22 20 21 20 16 12 9 10 10 8 8 9 12 8 4 8 10 9 6 10 17 21 25 26 19 15 23 28
Wind_Direction
281 280 281 280 279 280 283 281 280 277 274 273 272 272 269 267 264 264 258 245 237 239 236 239 239 234 230 230 225 228 234 235 223 234 256 281 283 284 305 306 309 307 309 315 302
285 286 286 284 282 279 275 278 276 276 274 273 271 268 271 267 263 258 254 247 236 236 236 240 239 228 225 226 223 229 242 235 211 245 281 287 285 286 304 314 316 306 307 316 304
311 313 315 307 298 282 273 274 274 279 277 273 269 268 266 267 266 264 253 247 235 227 225 226 227 220 221 225 228 238 249 236 216 261 279 296 289 292 308 310 320 299 310 317 309
296 301 307 317 320 314 279 268 271 276 273 276 269 265 263 259 262 265 243 238 222 216 215 219 219 218 220 226 228 235 247 242 237 258 272 284 291 298 305 317 312 306 315 318 312
291 294 297 304 312 320 309 275 274 273 271 270 269 264 258 254 242 237 225 220 225 208 204 218 221 223 224 228 226 237 246 244 250 254 273 279 285 293 302 321 320 322 316 313 325
296 295 294 298 304 313 324 289 278 283 269 266 265 266 258 253 259 239 228 223 212 217 201 213 230 234 233 230 226 241 244 244 247 256 264 273 281 285 308 313 321 331 319 317 325
296 296 298 297 290 297 306 310 293 288 297 264 267 261 261 250 247 229 219 227 220 219 215 223 240 237 235 233 232 233 239 243 249 262 270 270 274 284 311 311 322 325 319 322 328
295 296 297 297 295 285 285 290 286 289 288 293 269 264 258 259 234 242 230 226 227 228 233 242 236 235 231 228 230 229 244 253 259 269 258 258 269 297 305 316 324 322 316 321 326
298 299 300 297 296 294 293 287 285 284 281 285 284 263 265 262 242 238 231 232 227 227 228 230 226 230 229 225 223 226 233 246 257 229 240 260 269 281 296 300 303 309 306 318 324
298 300 300 298 296 297 295 294 291 286 271 271 279 280 246 247 215 241 234 235 225 218 213 214 223 223 224 218 216 215 226 243 247 237 244 257 270 278 296 278 292 310 300 306 314
298 301 300 300 300 300 298 297 300 292 284 271 273 259 244 242 233 237 234 233 224 217 211 215 219 221 225 229 233 234 231 246 254 237 248 260 271 276 264 288 295 309 289 275 294
298 301 302 303 303 301 302 304 305 301 294 276 278 276 249 248 250 241 227 224 226 223 217 218 227 233 233 234 235 239 235 248 262 254 256 260 269 252 270 272 289 296 312 262 280
297 300 301 304 305 299 300 306 309 310 311 304 298 273 260 237 238 231 233 230 231 231 224 222 229 237 232 231 231 237 234 242 254 262 250 274 277 258 262 270 271 285 304 276 270
293 297 298 302 301 296 296 302 310 319 320 333 346 334 274 245 239 239 232 235 238 233 234 229 227 237 227 232 234 240 239 248 259 269 264 264 287 274 267 269 260 269 290 308 263
289 292 294 299 302 287 292 294 305 329 324 336 356 350 329 272 224 214 222 216 223 226 219 224 230 223 221 221 230 242 246 249 262 263 271 265 277 278 291 278 262 256 257 280 280
283 286 288 292 297 285 280 279 284 306 251 343 358 354 340 325 254 253 218 208 221 223 236 240 240 229 237 239 247 234 226 242 235 248 252 253 243 279 281 292 288 281 252 259 265
279 279 282 286 287 270 267 262 230 213 279 314 249 340 332 326 275 244 244 212 196 201 216 225 231 230 225 221 227 213 188 196 215 205 250 237 226 258 275 279 290 278 244 248 240
273 272 274 277 274 258 248 226 219 248 256 269 297 324 347 344 358 236 235 220 204 205 200 209 228 218 217 213 219 222 209 191 211 213 235 220 224 252 288 233 268 289 270 251 236
268 269 267 267 262 249 235 228 231 226 250 286 332 313 350 125 96 198 215 297 227 202 204 207 224 247 223 216 203 197 205 216 246 148 4 230 254 273 276 271 293 287 266 243 227
267 267 266 253 246 234 234 235 229 207 227 251 295 309 345 25 72 164 176 9 203 214 201 217 201 209 196 211 226 226 223 201 223 231 243 222 239 240 288 280 301 288 259 219 208
261 266 263 242 228 224 230 238 243 224 228 237 259 248 292 341 23 33 78 63 103 214 205 211 215 184 196 204 215 206 218 221 219 228 233 236 238 249 313 314 336 294 229 220 223
254 255 263 229 223 230 229 239 242 247 235 245 254 259 263 272 303 321 10 84 70 93 151 219 241 228 208 156 197 211 223 220 226 211 224 241 240 253 274 283 290 311 260 203 186
247 252 245 219 232 229 230 249 244 248 244 238 246 259 250 272 294 305 261 243 58 61 73 130 197 145 176 236 245 244 237 239 244 245 239 238 252 224 251 267 283 286 282 248 228
239 244 241 230 225 240 231 239 242 248 250 249 242 253 255 262 264 260 257 255 253 327 346 57 141 148 182 134 194 209 214 204 231 246 250 248 263 270 272 274 256 269 283 270 273
227 238 234 238 238 234 233 235 248 248 246 252 252 245 248 257 266 260 267 261 252 249 252 265 158 229 252 274 305 325 312 271 271 269 254 284 284 290 273 274 263 266 261 264 272
219 233 237 242 252 243 233 236 243 251 244 249 257 260 258 251 252 251 265 270 240 207 210 224 233 176 212 290 297 299 286 298 284 277 281 282 283 274 274 263 274 263 270 259 258
224 226 237 242 238 243 236 244 244 236 249 253 254 258 247 261 256 249 247 236 239 239 218 198 206 231 248 259 285 289 247 253 269 290 289 277 311 319 279 257 261 259 266 281 263